[[{"header":{"parameterUnit":"m.s-1","parameterCategory":1,"la1":30.2991,"la2":30.254,"lo1":-89.0895,"lo2":-89.0444,"dy":0.0017,"dx":0.0017,"nx":28,"ny":28,"refTime":"2025-02-09T09:00:00:Z","depth":0,"parameterNumber":2,"parameterNumberName":"U-component_of_WINDS"},"data":[0,0,0,0,0,0,0,0,0,0,0,0,0,0,0,0,0,0,0,0,0,0,0,0,0,0,0,0,0,0,0,0,0,0,0,0,0,0,0,0,0,0,0,0,0,0,0,0,0,0,0,0,0,0,0,0,0,0,-1.2201,-1.2202,0,-1.2271,-1.2272,-1.2273,-1.2296,-1.2296,-1.2296,-1.2296,-1.2367,-1.2369,-1.2372,0,0,0,0,0,0,0,0,0,0,0,0,0,-1.2087,-1.2089,-1.2201,-1.2202,-1.2203,-1.2271,-1.2272,-1.2273,-1.2296,-1.2296,-1.2296,-1.2295,-1.2367,-1.2369,-1.2372,0,0,0,0,0,0,0,0,0,0,0,0,0,-1.2144,-1.2089,-1.2201,-1.2223,-1.2225,-1.2271,-1.2272,-1.2273,-1.2296,-1.2296,-1.2296,-1.2295,-1.2366,-1.2369,-1.2372,-1.2401,0,0,-1.2382,-1.2384,0,0,0,0,0,0,0,0,-1.2141,-1.2149,-1.2218,-1.2221,-1.2224,-1.2275,-1.2258,-1.2316,-1.2297,-1.2269,-1.2296,-1.2295,-1.2337,-1.2342,-1.2357,-1.2404,-1.2407,-1.2382,-1.2384,-1.2386,-1.2387,0,0,0,0,0,0,0,-1.2137,-1.2146,-1.2229,-1.2219,-1.2223,-1.2229,-1.2236,-1.2269,-1.2305,-1.2272,-1.2274,-1.2282,-1.2338,-1.2353,-1.2358,-1.2408,-1.2382,-1.2385,-1.2387,-1.2389,-1.2483,-1.2484,0,0,0,0,0,0,-1.2129,-1.2142,-1.2226,-1.2231,-1.2181,-1.2231,-1.224,-1.2259,-1.2304,-1.2311,-1.2282,-1.2282,-1.2348,-1.2355,-1.2361,-1.2397,-1.2386,-1.2389,-1.2391,-1.2482,-1.2483,-1.2484,0,0,0,0,0,0,-1.2127,-1.2137,-1.2224,-1.2187,-1.2198,-1.2234,-1.2255,-1.226,-1.2275,-1.2312,-1.2318,-1.2291,-1.2348,-1.2356,-1.2391,-1.24,-1.239,-1.2393,-1.2482,-1.2483,-1.2483,-1.247,0,0,0,0,0,0,-1.2123,-1.2136,-1.2147,-1.2187,-1.22,-1.2252,-1.2255,-1.2262,-1.2281,-1.2282,-1.2322,-1.2328,-1.2348,-1.2386,-1.2394,-1.2404,-1.2396,-1.2481,-1.2482,-1.2483,-1.247,-1.2471,-1.2471,0,0,0,0,0,-1.2119,-1.2141,-1.2147,-1.2158,-1.2215,-1.2253,-1.226,-1.2283,-1.2282,-1.2293,-1.2317,-1.2327,-1.2398,-1.2389,-1.2399,-1.241,-1.2481,-1.2482,-1.2483,-1.247,-1.247,-1.2471,0,0,0,0,0,0,-1.2101,-1.2146,-1.2154,-1.2189,-1.2217,-1.2257,-1.2272,-1.2283,-1.2311,-1.2311,-1.2338,-1.2347,-1.2379,-1.2398,-1.2388,-1.244,-1.244,-1.2443,-1.2426,-1.2427,-1.2428,-1.2422,-1.2399,0,0,0,0,0,-1.2101,-1.2127,-1.2166,-1.2193,-1.2206,-1.2237,-1.2254,-1.2269,-1.2298,-1.231,-1.2336,-1.2364,-1.2393,-1.2411,-1.244,-1.2473,-1.2482,-1.2486,-1.2486,-1.2486,-1.2489,-1.2507,-1.2509,-1.2488,-1.2488,-1.2488,0,0,-1.2101,-1.2129,-1.2144,-1.219,-1.2213,-1.2239,-1.2246,-1.2274,-1.2294,-1.2314,-1.2348,-1.2368,-1.2402,-1.2435,-1.2452,-1.2452,-1.2497,-1.2488,-1.2488,-1.249,-1.2509,-1.2511,-1.2512,-1.2489,-1.2488,-1.2488,0,0,-1.2115,-1.2139,-1.2164,-1.2187,-1.2222,-1.2242,-1.2248,-1.2286,-1.23,-1.2335,-1.235,-1.2374,-1.2423,-1.2446,-1.2464,-1.2487,-1.2497,-1.2495,-1.2497,-1.2515,-1.2517,-1.2518,-1.2526,-1.2528,-1.2497,-1.2497,-1.2497,0,-1.2111,-1.2151,-1.2175,-1.2202,-1.2222,-1.2241,-1.2266,-1.2288,-1.233,-1.2343,-1.2343,-1.2405,-1.2429,-1.2468,-1.2473,-1.2488,-1.2495,-1.249,-1.2515,-1.2517,-1.2518,-1.2526,-1.2529,-1.2497,-1.2497,-1.2497,-1.2497,0,-1.2144,-1.2172,-1.2188,-1.2228,-1.225,-1.2276,-1.2303,-1.2322,-1.2335,-1.2355,-1.239,-1.2419,-1.2454,-1.2464,-1.2477,-1.2505,-1.2505,-1.2509,-1.2509,-1.252,-1.2527,-1.253,-1.2496,-1.2496,-1.2496,-1.2497,0,0,-1.2148,-1.2201,-1.2206,-1.2225,-1.2265,-1.2287,-1.2314,-1.2347,-1.2362,-1.2391,-1.2414,-1.2455,-1.246,-1.248,-1.2496,-1.2512,-1.2527,-1.2515,-1.2516,-1.2516,-1.2559,-1.2554,-1.2557,-1.2534,-1.2535,-1.2535,-1.2556,0,-1.2166,-1.2215,-1.2237,-1.2276,-1.2302,-1.2321,-1.2344,-1.2371,-1.239,-1.2415,-1.2437,-1.2465,-1.2469,-1.2482,-1.2498,-1.2521,-1.2536,-1.252,-1.2555,-1.2556,-1.2546,-1.2561,-1.2557,-1.2574,-1.2559,-1.2559,-1.256,0,-1.2194,-1.2223,-1.2264,-1.23,-1.2312,-1.2332,-1.2365,-1.2389,-1.2419,-1.2432,-1.2455,-1.2471,-1.2499,-1.2498,-1.2538,-1.2527,-1.2542,-1.2556,-1.2557,-1.2561,-1.2558,-1.2564,-1.2581,-1.2583,-1.2565,-1.2564,-1.2564,0,-1.2192,-1.2241,-1.2271,-1.2286,-1.233,-1.2344,-1.2363,-1.2393,-1.2412,-1.244,-1.2453,-1.2484,-1.2501,-1.2525,-1.2549,-1.2545,-1.2586,-1.2586,-1.2597,-1.2597,-1.2604,-1.2604,-1.2623,-1.2616,-1.2616,-1.2615,-1.2615,0,-1.221,-1.2234,-1.2271,-1.2289,-1.2317,-1.2343,-1.2369,-1.2389,-1.2416,-1.2439,-1.2458,-1.2479,-1.2509,-1.2534,-1.2553,-1.2582,-1.259,-1.2601,-1.2606,-1.2599,-1.2598,-1.2609,-1.2609,-1.2616,-1.2616,-1.2616,-1.2616,0,-1.2212,-1.2237,-1.2272,-1.231,-1.232,-1.2339,-1.2372,-1.2391,-1.2411,-1.244,-1.2448,-1.248,-1.251,-1.2536,-1.2576,-1.2589,-1.2619,-1.2625,-1.2609,-1.2611,-1.262,-1.2619,-1.2647,-1.2652,-1.2642,-1.2642,-1.2642,0,-1.2221,-1.224,-1.228,-1.2297,-1.2315,-1.2342,-1.2361,-1.2387,-1.2406,-1.2442,-1.2457,-1.2489,-1.2515,-1.2563,-1.2589,-1.262,-1.2626,-1.2634,-1.2631,-1.2624,-1.2626,-1.2624,-1.2626,-1.2634,-1.2634,-1.2634,-1.2634,0,-1.2234,-1.2246,-1.2273,-1.2304,-1.2326,-1.2352,-1.2379,-1.2391,-1.2422,-1.2443,-1.2474,-1.2494,-1.2535,-1.2566,-1.26,-1.2619,-1.2632,-1.2635,-1.2639,-1.2632,-1.2622,-1.2627,-1.2608,-1.2634,-1.2634,-1.2634,-1.2634,-1.2634,-1.224,-1.2258,-1.2288,-1.2318,-1.234,-1.2364,-1.2384,-1.2407,-1.2433,-1.2468,-1.2482,-1.2513,-1.2544,-1.259,-1.261,-1.2635,-1.2637,-1.2643,-1.2644,-1.2645,-1.2644,-1.2618,-1.2641,-1.2641,-1.2641,-1.2641,-1.2641,0,-1.2254,-1.2275,-1.2301,-1.2337,-1.236,-1.237,-1.24,-1.2418,-1.2446,-1.2473,-1.2499,-1.2535,-1.2565,-1.2594,-1.2626,-1.264,-1.2647,-1.2648,-1.2647,-1.2651,-1.264,-1.2633,-1.2642,-1.2642,-1.2642,-1.2642,-1.2642,-1.2642,-1.2264,-1.2294,-1.2309,-1.2351,-1.2371,-1.2402,-1.2418,-1.2441,-1.2463,-1.2501,-1.2527,-1.2545,-1.2573,-1.2607,-1.2636,-1.2643,-1.2654,-1.2653,-1.2662,-1.2652,-1.2652,-1.2651,-1.2645,-1.2655,-1.2655,-1.2671,-1.2671,-1.2671]},{"header":{"parameterUnit":"m.s-1","parameterCategory":1,"la1":30.2991,"la2":30.254,"lo1":-89.0895,"lo2":-89.0444,"dy":0.0017,"dx":0.0017,"nx":28,"ny":28,"refTime":"2025-02-09T09:00:00:Z","depth":0,"parameterNumber":3,"parameterNumberName":"V-component_of_WINDS"},"data":[0,0,0,0,0,0,0,0,0,0,0,0,0,0,0,0,0,0,0,0,0,0,0,0,0,0,0,0,0,0,0,0,0,0,0,0,0,0,0,0,0,0,0,0,0,0,0,0,0,0,0,0,0,0,0,0,0,0,2.0263,2.0264,0,2.0365,2.0366,2.0367,2.0393,2.0392,2.0392,2.0391,2.0496,2.0499,2.0502,0,0,0,0,0,0,0,0,0,0,0,0,0,2.0092,2.0095,2.0263,2.0264,2.0265,2.0364,2.0366,2.0367,2.0393,2.0392,2.0392,2.0391,2.0495,2.0499,2.0503,0,0,0,0,0,0,0,0,0,0,0,0,0,2.0177,2.0096,2.0263,2.029,2.0294,2.0364,2.0366,2.0368,2.0393,2.0392,2.0391,2.0391,2.0493,2.0498,2.0503,2.0553,0,0,2.0519,2.0521,0,0,0,0,0,0,0,0,2.0172,2.0183,2.0285,2.0288,2.0292,2.0365,2.0344,2.043,2.0394,2.0356,2.0391,2.039,2.0453,2.0461,2.0483,2.0558,2.0563,2.0519,2.0522,2.0524,2.0526,0,0,0,0,0,0,0,2.0166,2.0179,2.0303,2.0286,2.0291,2.0298,2.0309,2.036,2.0408,2.0359,2.0361,2.0373,2.0455,2.0478,2.0485,2.0564,2.0519,2.0523,2.0526,2.0528,2.0688,2.0689,0,0,0,0,0,0,2.0155,2.0174,2.03,2.0306,2.0229,2.0302,2.0314,2.0343,2.0408,2.0417,2.0373,2.0373,2.0469,2.0479,2.0489,2.0554,2.0524,2.0529,2.0532,2.0687,2.0688,2.069,0,0,0,0,0,0,2.0152,2.0166,2.0296,2.0241,2.0258,2.0306,2.0338,2.0345,2.0368,2.0419,2.0428,2.0388,2.0469,2.0482,2.0538,2.0557,2.0531,2.0536,2.0685,2.0687,2.0689,2.0682,0,0,0,0,0,0,2.0147,2.0165,2.0184,2.0241,2.026,2.0342,2.0339,2.0348,2.0377,2.0378,2.0435,2.0443,2.0469,2.053,2.0543,2.0564,2.054,2.0684,2.0686,2.0688,2.0681,2.0683,2.0686,0,0,0,0,0,2.014,2.0178,2.0185,2.02,2.0286,2.0343,2.0355,2.0384,2.0378,2.0398,2.0431,2.0441,2.0553,2.0535,2.055,2.0573,2.0683,2.0686,2.0688,2.068,2.0683,2.0686,0,0,0,0,0,0,2.0122,2.0186,2.0194,2.0251,2.0292,2.0348,2.0374,2.0386,2.0429,2.0429,2.0463,2.0476,2.0529,2.0557,2.0536,2.0626,2.0618,2.0624,2.0606,2.061,2.0612,2.0605,2.0544,0,0,0,0,0,2.0125,2.0166,2.0219,2.0264,2.0284,2.0326,2.0352,2.0371,2.0414,2.0432,2.0468,2.051,2.0555,2.0584,2.0627,2.0684,2.0698,2.0708,2.071,2.0712,2.0717,2.0751,2.0756,2.0699,2.0699,2.0698,0,0,2.013,2.017,2.0194,2.0262,2.0295,2.0338,2.034,2.0384,2.0417,2.0438,2.0494,2.0522,2.0571,2.0628,2.0655,2.0653,2.0735,2.0715,2.0716,2.072,2.0754,2.0759,2.0764,2.07,2.07,2.07,0,0,2.0163,2.0197,2.0239,2.0273,2.0324,2.0351,2.0361,2.0415,2.0435,2.0491,2.0509,2.0548,2.0623,2.0658,2.0686,2.0732,2.0744,2.0746,2.0759,2.0792,2.0796,2.08,2.0819,2.0825,2.075,2.075,2.075,0,2.0164,2.0229,2.0259,2.0303,2.0333,2.0355,2.0398,2.0429,2.0492,2.0512,2.0508,2.0605,2.0639,2.0705,2.0717,2.0738,2.0751,2.074,2.0793,2.0797,2.0802,2.082,2.0826,2.075,2.075,2.075,2.075,0,2.0228,2.0273,2.0301,2.0361,2.0394,2.0437,2.0475,2.0504,2.052,2.0548,2.0606,2.0648,2.0701,2.0718,2.0734,2.0787,2.0784,2.0786,2.0779,2.0807,2.0824,2.0831,2.075,2.075,2.075,2.075,0,0,2.0253,2.033,2.034,2.0368,2.0426,2.0462,2.0506,2.0559,2.0584,2.0626,2.0666,2.073,2.0732,2.0764,2.0784,2.0812,2.0849,2.0811,2.0813,2.0818,2.0911,2.0911,2.0918,2.0856,2.0857,2.0858,2.0908,0,2.0294,2.0375,2.0404,2.0471,2.0514,2.0535,2.0574,2.0614,2.0641,2.0682,2.0712,2.0758,2.0756,2.0776,2.0805,2.0838,2.0868,2.0835,2.0894,2.0896,2.0883,2.0927,2.0926,2.0971,2.0915,2.0916,2.0917,0,2.0353,2.0397,2.0469,2.0523,2.0542,2.0576,2.0628,2.0665,2.0712,2.073,2.0765,2.0783,2.0832,2.0821,2.0889,2.0866,2.0891,2.0912,2.0914,2.0922,2.0909,2.0938,2.0986,2.0993,2.0927,2.0927,2.0926,0,2.0366,2.0443,2.0496,2.0519,2.0583,2.0608,2.0635,2.0681,2.0711,2.0755,2.0775,2.0825,2.0852,2.089,2.0922,2.091,2.0988,2.0979,2.1005,2.1004,2.1021,2.102,2.1076,2.1035,2.1035,2.1035,2.1035,0,2.041,2.0454,2.0503,2.0536,2.0586,2.0618,2.0666,2.0695,2.0735,2.0775,2.0796,2.0832,2.0871,2.0913,2.0937,2.0991,2.1003,2.1019,2.1026,2.1019,2.1017,2.1037,2.1036,2.1037,2.1036,2.1036,2.1036,0,2.0434,2.0468,2.0528,2.0584,2.0599,2.0633,2.0681,2.0714,2.0742,2.0792,2.0805,2.085,2.09,2.0935,2.0999,2.1016,2.1075,2.108,2.1059,2.1063,2.1088,2.1086,2.116,2.1172,2.1121,2.1122,2.1122,0,2.0461,2.0495,2.0554,2.0582,2.061,2.0654,2.0686,2.0719,2.075,2.0806,2.0833,2.0884,2.0928,2.1008,2.1046,2.1096,2.1103,2.1126,2.1111,2.1103,2.1106,2.1104,2.1109,2.1129,2.1129,2.1129,2.1129,0,2.0505,2.0521,2.0565,2.0615,2.0651,2.0692,2.0734,2.0755,2.0796,2.083,2.0882,2.0916,2.0982,2.1034,2.1088,2.1117,2.1131,2.1134,2.1143,2.1137,2.1124,2.1133,2.1068,2.1132,2.1132,2.1132,2.1132,2.1131,2.0533,2.0564,2.0612,2.066,2.0695,2.0733,2.0767,2.08,2.0844,2.09,2.0917,2.0972,2.1018,2.1091,2.1121,2.1165,2.1163,2.1176,2.1179,2.1182,2.1183,2.1116,2.1174,2.1174,2.1174,2.1174,2.1174,0,2.058,2.0611,2.0655,2.0713,2.0751,2.076,2.0807,2.0838,2.0886,2.0928,2.097,2.1031,2.1081,2.1123,2.1176,2.1202,2.121,2.1215,2.1215,2.1221,2.1181,2.1169,2.1208,2.1208,2.1208,2.1208,2.1208,2.1208,2.0609,2.0664,2.0685,2.0758,2.0789,2.0842,2.0868,2.0904,2.0938,2.1005,2.1047,2.1074,2.1116,2.1172,2.1219,2.123,2.1249,2.1253,2.1266,2.1228,2.1224,2.122,2.1209,2.1257,2.1257,2.1303,2.1304,2.1304]}]]